When you browse on this site, cookies collect data to enhance your experience and personalize the content and advertising you see.
Visit our Privacy Policy to learn more. By continuing to use the site, you agree to this use of cookies and data.
  • In United Kingdom
  • List of Countries
  • For 7 days
  • Water Temperature
  • Weather Map
  • Weather Widgets
  • user-avatar
    Login

    Hourly Weather Trashigang

    Today, 19 February, Wednesday

    Time Temperature Precipitation Wind Pressure Humidity
    00:00 +10°C° 0 mm 0 mps 628 mmHg 94%
    01:00 +10°C° 0 mm 0 mps 627 mmHg 93%
    02:00 +10°C° 0 mm 0 mps 627 mmHg 92%
    03:00 +9°C° 0 mm 0 mps 627 mmHg 91%
    04:00 +9°C° 0 mm 0 mps 627 mmHg 91%
    05:00 +9°C° 0 mm 0 mps 627 mmHg 90%
    06:00 +9°C° 0 mm 0 mps 627 mmHg 92%
    07:00 +11°C° 0.1 mm 0 mps 628 mmHg 87%
    08:00 +13°C° 0.1 mm 1 mps 629 mmHg 82%
    09:00 +14°C° 0.1 mm 1 mps 630 mmHg 77%
    10:00 +15°C° 0.3 mm 1 mps 629 mmHg 73%
    11:00 +16°C° 0.3 mm 2 mps 629 mmHg 70%
    12:00 +17°C° 0.3 mm 2 mps 629 mmHg 66%
    13:00 +17°C° 0.4 mm 2 mps 628 mmHg 68%
    14:00 +16°C° 0.4 mm 2 mps 628 mmHg 70%
    15:00 +16°C° 0.4 mm 2 mps 627 mmHg 73%
    16:00 +14°C° 0.1 mm 2 mps 627 mmHg 80%
    17:00 +13°C° 0.1 mm 1 mps 626 mmHg 87%
    18:00 +12°C° 0.1 mm 1 mps 626 mmHg 94%
    19:00 +11°C° 0.1 mm 1 mps 627 mmHg 94%
    20:00 +10°C° 0.1 mm 0 mps 627 mmHg 94%
    21:00 +10°C° 0.1 mm 0 mps 628 mmHg 94%
    22:00 +10°C° 0.1 mm 0 mps 628 mmHg 93%
    23:00 +10°C° 0.1 mm 0 mps 628 mmHg 92%

    Tomorrow, 20 February, Thursday

    Time Temperature Precipitation Wind Pressure Humidity
    00:00 +10°C° 0.1 mm 0 mps 628 mmHg 92%
    01:00 +10°C° 0.1 mm 0 mps 628 mmHg 92%
    02:00 +10°C° 0.1 mm 0 mps 627 mmHg 92%
    03:00 +10°C° 0.1 mm 0 mps 627 mmHg 93%
    04:00 +10°C° 0.1 mm 0 mps 627 mmHg 92%
    05:00 +10°C° 0.1 mm 0 mps 627 mmHg 92%
    06:00 +10°C° 0.1 mm 0 mps 627 mmHg 92%
    07:00 +10°C° 0 mm 0 mps 628 mmHg 89%
    08:00 +11°C° 0 mm 0 mps 629 mmHg 87%
    09:00 +13°C° 0 mm 1 mps 629 mmHg 84%
    10:00 +14°C° 0.1 mm 1 mps 629 mmHg 79%
    11:00 +15°C° 0.1 mm 1 mps 629 mmHg 73%
    12:00 +16°C° 0.1 mm 2 mps 629 mmHg 67%
    13:00 +16°C° 0.1 mm 2 mps 629 mmHg 68%
    14:00 +16°C° 0.1 mm 2 mps 628 mmHg 69%
    15:00 +16°C° 0.1 mm 2 mps 628 mmHg 70%
    16:00 +15°C° 0.3 mm 2 mps 628 mmHg 79%
    17:00 +13°C° 0.3 mm 1 mps 627 mmHg 88%
    18:00 +12°C° 0.3 mm 1 mps 627 mmHg 97%
    19:00 +12°C° 0.1 mm 1 mps 628 mmHg 95%
    20:00 +10°C° 0.1 mm 0 mps 629 mmHg 94%
    21:00 +10°C° 0.1 mm 0 mps 629 mmHg 93%
    22:00 +10°C° 0 mm 0 mps 629 mmHg 93%
    23:00 +10°C° 0 mm 0 mps 629 mmHg 93%

    Day after tomorrow, 21 February, Friday

    Time Temperature Precipitation Wind Pressure Humidity
    00:00 +10°C° 0 mm 0 mps 629 mmHg 92%
    01:00 +10°C° 0 mm 0 mps 629 mmHg 92%
    02:00 +9°C° 0 mm 0 mps 629 mmHg 91%
    03:00 +9°C° 0 mm 0 mps 628 mmHg 90%
    04:00 +10°C° 0 mm 1 mps 628 mmHg 89%
    05:00 +10°C° 0 mm 1 mps 629 mmHg 87%
    06:00 +10°C° 0 mm 1 mps 629 mmHg 86%
    07:00 +12°C° 0 mm 1 mps 630 mmHg 79%
    08:00 +14°C° 0 mm 1 mps 631 mmHg 72%
    09:00 +16°C° 0 mm 1 mps 633 mmHg 66%
    10:00 +18°C° 0 mm 1 mps 633 mmHg 62%
    11:00 +18°C° 0 mm 2 mps 633 mmHg 58%
    12:00 +19°C° 0 mm 2 mps 633 mmHg 55%
    19:00 +12°C° 0 mm 1 mps 630 mmHg 90%
    20:00 +12°C° 0 mm 1 mps 631 mmHg 89%
    21:00 +11°C° 0 mm 1 mps 631 mmHg 89%
    22:00 +11°C° 0 mm 1 mps 631 mmHg 87%
    23:00 +11°C° 0 mm 1 mps 631 mmHg 84%

    22 February, Saturday

    Time Temperature Precipitation Wind Pressure Humidity
    00:00 +10°C° 0 mm 1 mps 631 mmHg 82%
    01:00 +10°C° 0 mm 1 mps 630 mmHg 80%
    02:00 +10°C° 0 mm 1 mps 630 mmHg 79%
    03:00 +9°C° 0 mm 2 mps 630 mmHg 77%
    04:00 +10°C° 0 mm 1 mps 630 mmHg 75%
    05:00 +10°C° 0 mm 1 mps 630 mmHg 74%
    06:00 +10°C° 0 mm 1 mps 630 mmHg 72%
    07:00 +13°C° 0 mm 1 mps 631 mmHg 65%
    08:00 +15°C° 0 mm 1 mps 632 mmHg 58%
    09:00 +16°C° 0 mm 0 mps 634 mmHg 50%
    10:00 +19°C° 0 mm 1 mps 633 mmHg 49%
    11:00 +19°C° 0 mm 2 mps 633 mmHg 48%
    12:00 +20°C° 0 mm 2 mps 633 mmHg 46%
    13:00 +19°C° 0.2 mm 2 mps 632 mmHg 50%
    14:00 +18°C° 0.2 mm 2 mps 631 mmHg 53%
    15:00 +18°C° 0.2 mm 2 mps 630 mmHg 56%
    16:00 +16°C° 0.1 mm 2 mps 630 mmHg 63%
    17:00 +15°C° 0.1 mm 1 mps 629 mmHg 70%
    18:00 +13°C° 0.1 mm 1 mps 629 mmHg 78%
    19:00 +12°C° 0 mm 1 mps 629 mmHg 78%
    20:00 +12°C° 0 mm 1 mps 630 mmHg 79%
    21:00 +12°C° 0 mm 1 mps 630 mmHg 79%
    22:00 +11°C° 0 mm 1 mps 630 mmHg 77%
    23:00 +10°C° 0 mm 2 mps 630 mmHg 75%

    23 February, Sunday

    Time Temperature Precipitation Wind Pressure Humidity
    00:00 +9°C° 0 mm 2 mps 630 mmHg 74%
    01:00 +9°C° 0 mm 2 mps 629 mmHg 73%
    02:00 +9°C° 0 mm 2 mps 629 mmHg 73%
    03:00 +9°C° 0 mm 2 mps 629 mmHg 73%
    04:00 +9°C° 0 mm 2 mps 629 mmHg 73%
    05:00 +9°C° 0 mm 2 mps 629 mmHg 74%
    06:00 +9°C° 0 mm 2 mps 629 mmHg 75%
    07:00 +12°C° 0 mm 1 mps 630 mmHg 68%
    08:00 +14°C° 0 mm 1 mps 631 mmHg 61%
    09:00 +16°C° 0 mm 0 mps 633 mmHg 53%
    10:00 +18°C° 0 mm 1 mps 632 mmHg 51%
    11:00 +18°C° 0 mm 2 mps 632 mmHg 48%
    12:00 +19°C° 0 mm 2 mps 632 mmHg 46%
    13:00 +19°C° 0.2 mm 2 mps 631 mmHg 49%
    14:00 +18°C° 0.2 mm 2 mps 630 mmHg 52%
    15:00 +18°C° 0.2 mm 2 mps 629 mmHg 56%
    16:00 +16°C° 0.3 mm 2 mps 629 mmHg 66%
    17:00 +14°C° 0.3 mm 1 mps 628 mmHg 75%
    18:00 +12°C° 0.3 mm 1 mps 628 mmHg 85%
    19:00 +12°C° 0.2 mm 1 mps 628 mmHg 86%
    20:00 +11°C° 0.2 mm 1 mps 628 mmHg 88%
    21:00 +11°C° 0.2 mm 1 mps 629 mmHg 89%
    22:00 +11°C° 0.3 mm 1 mps 629 mmHg 89%
    23:00 +11°C° 0.3 mm 1 mps 628 mmHg 89%

    24 February, Monday

    Time Temperature Precipitation Wind Pressure Humidity
    00:00 +11°C° 0.3 mm 1 mps 628 mmHg 89%
    01:00 +11°C° 0.3 mm 1 mps 628 mmHg 89%
    02:00 +11°C° 0.3 mm 1 mps 628 mmHg 89%
    03:00 +11°C° 0.3 mm 1 mps 628 mmHg 89%
    04:00 +11°C° 0 mm 1 mps 627 mmHg 88%
    05:00 +11°C° 0 mm 1 mps 627 mmHg 88%
    06:00 +11°C° 0 mm 1 mps 627 mmHg 87%
    07:00 +12°C° 0 mm 1 mps 628 mmHg 82%
    08:00 +13°C° 0 mm 1 mps 629 mmHg 77%
    09:00 +13°C° 0 mm 0 mps 630 mmHg 72%
    10:00 +16°C° 0.1 mm 1 mps 630 mmHg 66%
    11:00 +17°C° 0.1 mm 2 mps 630 mmHg 60%
    12:00 +18°C° 0.1 mm 2 mps 630 mmHg 55%
    13:00 +18°C° 0.5 mm 2 mps 629 mmHg 59%
    14:00 +17°C° 0.5 mm 2 mps 628 mmHg 64%
    15:00 +17°C° 0.5 mm 2 mps 627 mmHg 69%
    16:00 +15°C° 0.5 mm 2 mps 626 mmHg 77%
    17:00 +13°C° 0.5 mm 1 mps 626 mmHg 85%
    18:00 +11°C° 0.5 mm 1 mps 626 mmHg 94%
    19:00 +11°C° 0.2 mm 1 mps 626 mmHg 92%
    20:00 +11°C° 0.2 mm 1 mps 627 mmHg 90%
    21:00 +11°C° 0.2 mm 1 mps 627 mmHg 88%
    22:00 +10°C° 0 mm 1 mps 627 mmHg 87%
    23:00 +10°C° 0 mm 1 mps 627 mmHg 87%
    Show more